Weather History for Flora, IL

Change the Weather History Date:

Friday, February 21, 2014

  Actual Average (KEVV) Record (KEVV)
Temperature  
Mean Temperature 40 °F 38 °F  
Max Temperature 48 °F 48 °F 72 °F (1922)
Min Temperature 33 °F 29 °F -3 °F (1963)
Degree Days  
Heating Degree Days 24 27  
Month to date heating degree days 618  
Since 1 July heating degree days 3397  
Cooling Degree Days 0 0  
Month to date cooling degree days 0  
Year to date cooling degree days 0  
Moisture  
Dew Point 24 °F    
Average Humidity 55    
Maximum Humidity 81    
Minimum Humidity 30    
Precipitation  
Precipitation 0.00 in 0.10 in 1.36 in (1950)
Month to date precipitation 2.39  
Year to date precipitation 5.49  
Snow  
Snow 0.00 in 0.10 in 0.60 in (1965)
Month to date snowfall 3.0  
Since 1 July snowfall 9.9  
Snow Depth -    
Sea Level Pressure  
Sea Level Pressure 29.88 in    
Wind  
Wind Speed 13 mph (SW)    
Max Wind Speed 23 mph    
Max Gust Speed 33 mph    
Visibility 10 miles    
Events      
T = Trace of Precipitation, MM = Missing Value Source: NWS Daily Summary

Daily Weather History Graph

Daily Weather History Graph

Search for Another Location

Airport:

Trip Planner

Search our weather history database for the weather conditions in past years. The results will help you decide how hot, cold, wet, or windy it might be!

Date:

Astronomy

Feb. 21, 2014 Rise Set
Actual Time 6:37 AM CST 5:38 PM CST
Civil Twilight 6:10 AM CST 6:05 PM CST
Nautical Twilight 5:39 AM CST 6:36 PM CST
Astronomical Twilight 5:08 AM CST 7:06 PM CST
Moon No Moon Rise 10:05 AM CST (2/21)
Length of Visible Light 11h 55m
Length of Day
11h 01m
Waning Gibbous, 60% of the Moon is Illuminated
Feb 21
Waning Gibbous
Feb 22
Last Quarter
Mar 1
New
Mar 8
First Quarter
Mar 16
Full

Hourly Weather History & Observations

Time (CST) Temp. Windchill Dew Point Humidity Pressure Visibility Wind Dir Wind Speed Gust Speed Precip Events Conditions
12:01 AM 35.6 °F 29.9 °F 28.4 °F 75% 29.72 in 10.0 mi SW 6.9 mph - N/A   Clear
12:21 AM 35.6 °F 28.0 °F 28.4 °F 75% 29.73 in 10.0 mi SSW 10.4 mph - N/A   Clear
12:42 AM 35.6 °F 28.0 °F 28.4 °F 75% 29.74 in 10.0 mi SSW 10.4 mph - N/A   Clear
1:01 AM 35.6 °F 28.6 °F 28.4 °F 75% 29.74 in 10.0 mi SSW 9.2 mph - N/A   Clear
1:21 AM 35.6 °F 27.5 °F 28.4 °F 75% 29.76 in 10.0 mi SSW 11.5 mph - N/A   Clear
1:41 AM 33.8 °F 25.8 °F 28.4 °F 81% 29.76 in 10.0 mi SSW 10.4 mph - N/A   Clear
2:01 AM 33.8 °F 26.4 °F 28.4 °F 81% 29.77 in 10.0 mi SSW 9.2 mph - N/A   Clear
2:21 AM 33.8 °F 26.4 °F 28.4 °F 81% 29.76 in 10.0 mi SSW 9.2 mph - N/A   Clear
2:41 AM 33.8 °F 25.8 °F 28.4 °F 81% 29.76 in 10.0 mi SSW 10.4 mph - N/A   Clear
3:03 AM 35.6 °F 28.0 °F 28.4 °F 75% 29.75 in 10.0 mi SSW 10.4 mph - N/A   Clear
3:21 AM 35.6 °F 27.5 °F 28.4 °F 75% 29.75 in 10.0 mi SSW 11.5 mph - N/A   Clear
3:41 AM 35.6 °F 25.5 °F 28.4 °F 75% 29.75 in 10.0 mi SW 17.3 mph 31.1 mph N/A   Clear
4:01 AM 37.4 °F 29.3 °F 26.6 °F 65% 29.76 in 10.0 mi WSW 12.7 mph 24.2 mph N/A   Clear
4:21 AM 37.4 °F 28.5 °F 28.4 °F 70% 29.77 in 10.0 mi WSW 15.0 mph - N/A   Clear
4:43 AM 37.4 °F 28.2 °F 26.6 °F 65% 29.78 in 10.0 mi WSW 16.1 mph 26.5 mph N/A   Clear
5:01 AM 37.4 °F 28.2 °F 24.8 °F 60% 29.80 in 10.0 mi West 16.1 mph 25.3 mph N/A   Clear
5:21 AM 37.4 °F 27.8 °F 24.8 °F 60% 29.81 in 10.0 mi West 17.3 mph 24.2 mph N/A   Scattered Clouds
5:41 AM 35.6 °F 25.2 °F 23.0 °F 60% 29.82 in 10.0 mi West 18.4 mph - N/A   Scattered Clouds
6:01 AM 35.6 °F 27.1 °F 23.0 °F 60% 29.83 in 10.0 mi West 12.7 mph 18.4 mph N/A   Clear
6:21 AM 35.6 °F 28.0 °F 23.0 °F 60% 29.84 in 10.0 mi WSW 10.4 mph - N/A   Clear
6:41 AM 35.6 °F 25.2 °F 21.2 °F 56% 29.84 in 10.0 mi West 18.4 mph 26.5 mph N/A   Clear
7:01 AM 35.6 °F 24.0 °F 21.2 °F 56% 29.85 in 10.0 mi West 23.0 mph 31.1 mph N/A   Clear
7:23 AM 35.6 °F 24.5 °F 21.2 °F 56% 29.85 in 10.0 mi West 20.7 mph 29.9 mph N/A   Clear
7:41 AM 35.6 °F 25.2 °F 21.2 °F 56% 29.85 in 10.0 mi West 18.4 mph 31.1 mph N/A   Clear
8:01 AM 35.6 °F 24.8 °F 21.2 °F 56% 29.86 in 10.0 mi West 19.6 mph 25.3 mph N/A   Clear
8:21 AM 35.6 °F 25.2 °F 21.2 °F 56% 29.87 in 10.0 mi West 18.4 mph 25.3 mph N/A   Clear
8:41 AM 37.4 °F 27.8 °F 21.2 °F 52% 29.88 in 10.0 mi West 17.3 mph 28.8 mph N/A   Clear
9:01 AM 37.4 °F 26.9 °F 21.2 °F 52% 29.89 in 10.0 mi West 20.7 mph 33.4 mph N/A   Clear
9:23 AM 37.4 °F 27.2 °F 19.4 °F 48% 29.90 in 10.0 mi West 19.6 mph 33.4 mph N/A   Clear
9:41 AM 37.4 °F 27.5 °F 19.4 °F 48% 29.92 in 10.0 mi West 18.4 mph 28.8 mph N/A   Clear
10:01 AM 37.4 °F 28.2 °F 19.4 °F 48% 29.93 in 10.0 mi WSW 16.1 mph 26.5 mph N/A   Clear
10:23 AM 39.2 °F 28.7 °F 17.6 °F 42% 29.94 in 10.0 mi West 23.0 mph 31.1 mph N/A   Clear
10:41 AM 39.2 °F 30.5 °F 17.6 °F 42% 29.95 in 10.0 mi West 16.1 mph 28.8 mph N/A   Clear
11:01 AM 39.2 °F 29.3 °F 17.6 °F 42% 29.95 in 10.0 mi West 20.7 mph 25.3 mph N/A   Clear
11:21 AM 41.0 °F 32.5 °F 17.6 °F 39% 29.96 in 10.0 mi West 17.3 mph 26.5 mph N/A   Clear
12:01 PM 42.8 °F 34.3 °F 17.6 °F 36% 29.95 in 10.0 mi West 19.6 mph 25.3 mph N/A   Clear
12:21 PM 44.6 °F 36.6 °F 17.6 °F 34% 29.95 in 10.0 mi West 19.6 mph 26.5 mph N/A   Clear
12:41 PM 44.6 °F 36.9 °F 17.6 °F 34% 29.95 in 10.0 mi WSW 18.4 mph 23.0 mph N/A   Clear
1:02 PM 44.6 °F 36.6 °F 17.6 °F 34% 29.94 in 10.0 mi West 19.6 mph 25.3 mph N/A   Clear
1:22 PM 46.4 °F 39.8 °F 17.6 °F 32% 29.94 in 10.0 mi West 16.1 mph 23.0 mph N/A   Clear
1:41 PM 46.4 °F 39.0 °F 17.6 °F 32% 29.94 in 10.0 mi West 19.6 mph 25.3 mph N/A   Clear
2:02 PM 48.2 °F - 17.6 °F 30% 29.93 in 10.0 mi West 16.1 mph 24.2 mph N/A   Clear
2:22 PM 48.2 °F - 19.4 °F 32% 29.93 in 10.0 mi WSW 17.3 mph 20.7 mph N/A   Clear
2:42 PM 48.2 °F - 19.4 °F 32% 29.92 in 10.0 mi WSW 13.8 mph 20.7 mph N/A   Clear
3:01 PM 48.2 °F - 19.4 °F 32% 29.92 in 10.0 mi SW 11.5 mph 19.6 mph N/A   Clear
3:21 PM 48.2 °F - 19.4 °F 32% 29.93 in 10.0 mi WSW 13.8 mph - N/A   Clear
3:42 PM 48.2 °F - 19.4 °F 32% 29.93 in 10.0 mi SW 11.5 mph 18.4 mph N/A   Clear
4:01 PM 48.2 °F - 21.2 °F 34% 29.93 in 10.0 mi SW 12.7 mph 20.7 mph N/A   Clear
4:21 PM 48.2 °F - 23.0 °F 37% 29.92 in 10.0 mi SW 10.4 mph - N/A   Clear
4:41 PM 48.2 °F - 23.0 °F 37% 29.93 in 10.0 mi SSW 10.4 mph - N/A   Clear
5:01 PM 48.2 °F - 23.0 °F 37% 29.92 in 10.0 mi South 8.1 mph - N/A   Clear
5:21 PM 46.4 °F 41.9 °F 24.8 °F 43% 29.92 in 10.0 mi South 9.2 mph - N/A   Clear
5:43 PM 42.8 °F 37.5 °F 24.8 °F 49% 29.92 in 10.0 mi South 9.2 mph - N/A   Clear
6:01 PM 39.2 °F 33.6 °F 24.8 °F 56% 29.92 in 10.0 mi South 8.1 mph - N/A   Clear
6:21 PM 37.4 °F 30.8 °F 24.8 °F 60% 29.92 in 10.0 mi South 9.2 mph - N/A   Clear
6:41 PM 39.2 °F 32.5 °F 24.8 °F 56% 29.92 in 10.0 mi South 10.4 mph - N/A   Clear
7:01 PM 41.0 °F 34.3 °F 26.6 °F 57% 29.92 in 10.0 mi South 11.5 mph - N/A   Clear
7:21 PM 41.0 °F 33.5 °F 26.6 °F 57% 29.92 in 10.0 mi South 13.8 mph - N/A   Clear
7:41 PM 41.0 °F 33.5 °F 26.6 °F 57% 29.92 in 10.0 mi South 13.8 mph - N/A   Clear
8:02 PM 39.2 °F 31.2 °F 26.6 °F 61% 29.92 in 10.0 mi South 13.8 mph 19.6 mph N/A   Clear
8:22 PM 41.0 °F 33.5 °F 26.6 °F 57% 29.93 in 10.0 mi South 13.8 mph - N/A   Clear
8:41 PM 39.2 °F 31.6 °F 26.6 °F 61% 29.92 in 10.0 mi South 12.7 mph - N/A   Clear
9:02 PM 39.2 °F 30.8 °F 28.4 °F 65% 29.92 in 10.0 mi South 15.0 mph - N/A   Clear
9:22 PM 39.2 °F 31.2 °F 28.4 °F 65% 29.92 in 10.0 mi South 13.8 mph - N/A   Clear
9:41 PM 39.2 °F 32.0 °F 28.4 °F 65% 29.92 in 10.0 mi South 11.5 mph - N/A   Clear
10:01 PM 39.2 °F 31.6 °F 28.4 °F 65% 29.93 in 10.0 mi SSW 12.7 mph - N/A   Scattered Clouds
10:21 PM 41.0 °F 33.1 °F 28.4 °F 61% 29.92 in 10.0 mi SSW 15.0 mph 19.6 mph N/A   Scattered Clouds
10:41 PM 41.0 °F 34.7 °F 28.4 °F 61% 29.92 in 10.0 mi SSW 10.4 mph - N/A   Clear
11:01 PM 41.0 °F 34.7 °F 28.4 °F 61% 29.93 in 10.0 mi SW 10.4 mph - N/A   Clear
11:21 PM 42.8 °F 38.0 °F 28.4 °F 57% 29.95 in 10.0 mi West 8.1 mph - N/A   Scattered Clouds
11:41 PM 42.8 °F 37.0 °F 28.4 °F 57% 29.96 in 10.0 mi WSW 10.4 mph - N/A   Scattered Clouds